Terminal Aerodrome Forecast
Issued by NWS Sterling, VA

Home | Current Version | Previous Version | Text Only | Print | Product List | Glossary On
Versions: 1 2 3 4 5 6 7 8 9 10 11 12 13 14
000
FTUS41 KLWX 231123
TAFCHO
TAF
KCHO 231123Z 2312/2412 36003KT P6SM SCT050
     FM231500 12006KT P6SM SCT150
     FM231800 15012G22KT P6SM BKN050
     FM240300 13012KT 6SM -RA OVC030
     FM240900 08009KT 4SM RA OVC015=

USA.gov is the U.S. government's official web portal to all federal, state and local government web resources and services.